Voltar ao catálogo

DELTA 4 R/B

AtivoHEO
NORAD 38071·ROCKET BODY·🇺🇸 United States

Lançado Jan 20, 2012 de Cape Canaveral Space Force Station

Loading…

Próximas Passagens (próximas 24 horas)

TLE

AtualizadoSource: Space-Track

Época: Sep 14, 2026, 03:29 UTC

1 38071U 12003B   26257.14580579 -.00000123  00000-0 -50166-3 0  9995
2 38071  22.5493  79.6441 8210109   4.3557 359.7641  1.17697578 62017

Acompanhe DELTA 4 R/B em tempo real com AllMySat

Download on the App Store